Weather History for Fort Leonard Wood, MO

Change the Weather History Date:

Sunday, July 21, 2013

  Actual Average Record
Temperature  
Mean Temperature 74 °F -  
Max Temperature 82 °F 85 °F 99 °F (2011)
Min Temperature 68 °F 69 °F 64 °F (2000)
Cooling Degree Days 9    
Growing Degree Days 24 (Base 50)    
Moisture  
Dew Point 71 °F    
Average Humidity 89    
Maximum Humidity 100    
Minimum Humidity 72    
Precipitation  
Precipitation 0.01 in - - ()
Sea Level Pressure  
Sea Level Pressure 29.91 in    
Wind  
Wind Speed 5 mph (SSE)    
Max Wind Speed 8 mph    
Max Gust Speed -    
Visibility 10 miles    
Events Rain    
Averages and records for this station are not official NWS values.
T = Trace of Precipitation, MM = Missing Value Source: NWS Daily Summary

Daily Weather History Graph

Daily Weather History Graph

Search for Another Location

Airport:

Trip Planner

Search our weather history database for the weather conditions in past years. The results will help you decide how hot, cold, wet, or windy it might be!

Date:

Astronomy

Jul. 21, 2013 Rise Set
Actual Time 6:03 AM CDT 8:26 PM CDT
Civil Twilight 5:33 AM CDT 8:56 PM CDT
Nautical Twilight 4:56 AM CDT 9:32 PM CDT
Astronomical Twilight 4:15 AM CDT 10:13 PM CDT
Moon 7:25 PM CDT (7/21) 4:49 AM CDT (7/21)
Length of Visible Light 15h 22m
Length of Day
14h 22m
Waxing Gibbous, 98% of the Moon is Illuminated
Jul 21
Waxing Gibbous
Jul 22
Full
Jul 29
Last Quarter
Aug 6
New
Aug 14
First Quarter

Hourly Weather History & Observations

Time (CDT) Temp. Heat Index Dew Point Humidity Pressure Visibility Wind Dir Wind Speed Gust Speed Precip Events Conditions
12:03 AM 73.4 °F - 69.8 °F 88% 29.97 in 10.0 mi East 8.1 mph - N/A   Mostly Cloudy
12:58 AM 71.6 °F - 70.2 °F 95% 29.92 in 10.0 mi South 5.8 mph - N/A   Scattered Clouds
1:58 AM 70.5 °F - 69.8 °F 98% 29.90 in 10.0 mi South 2.3 mph - N/A   Scattered Clouds
2:58 AM 69.8 °F - 69.8 °F 100% 29.90 in 10.0 mi WSW 4.6 mph - N/A   Mostly Cloudy
3:56 AM 69.8 °F - 69.8 °F 100% 29.93 in 10.0 mi SSW 1.2 mph - N/A   Clear
4:58 AM 69.4 °F - 69.4 °F 100% 29.91 in 10.0 mi South 5.8 mph - N/A   Mostly Cloudy
5:58 AM 68.9 °F - 68.9 °F 100% 29.91 in 10.0 mi SE 5.8 mph - N/A   Overcast
6:58 AM 69.6 °F - 69.6 °F 100% 29.93 in 10.0 mi South 2.3 mph - N/A   Mostly Cloudy
7:58 AM 72.1 °F - 70.7 °F 95% 29.93 in 10.0 mi Variable 5.8 mph - N/A   Mostly Cloudy
8:58 AM 73.4 °F - 70.7 °F 91% 29.94 in 10.0 mi Variable 2.3 mph - N/A   Overcast
9:58 AM 76.6 °F - 71.2 °F 83% 29.95 in 10.0 mi Variable 2.3 mph - N/A   Mostly Cloudy
10:58 AM 77.4 °F - 71.8 °F 83% 29.95 in 10.0 mi Variable 2.3 mph - N/A   Mostly Cloudy
11:58 AM 77.9 °F - 71.1 °F 79% 29.95 in 10.0 mi Calm Calm - N/A   Mostly Cloudy
12:58 PM 78.6 °F - 70.5 °F 76% 29.94 in 10.0 mi SE 6.9 mph - N/A   Mostly Cloudy
1:21 PM 77.0 °F - 73.4 °F 89% 29.96 in 10.0 mi SE 4.6 mph - N/A   Light Drizzle
1:34 PM 78.8 °F - 73.4 °F 83% 29.95 in 10.0 mi ESE 6.9 mph - N/A   Mostly Cloudy
1:58 PM 79.9 °F - 71.4 °F 75% 29.91 in 10.0 mi Variable 4.6 mph - 0.00 in   Mostly Cloudy
2:58 PM 80.6 °F 84.6 °F 71.6 °F 74% 29.91 in 10.0 mi Variable 2.3 mph - N/A   Mostly Cloudy
3:58 PM 80.6 °F 84.2 °F 70.7 °F 72% 29.90 in 10.0 mi Variable 2.3 mph - N/A   Mostly Cloudy
4:22 PM 80.6 °F 84.6 °F 71.6 °F 74% 29.92 in 10.0 mi SSW 3.5 mph - N/A Rain Light Rain
4:45 PM 75.2 °F - 73.4 °F 94% 29.90 in 10.0 mi ESE 5.8 mph - N/A   Overcast
4:58 PM 76.5 °F - 72.7 °F 88% 29.88 in 10.0 mi East 5.8 mph - 0.01 in   Overcast
5:58 PM 78.3 °F - 73.9 °F 87% 29.86 in 10.0 mi SE 6.9 mph - N/A   Mostly Cloudy
6:58 PM 79.2 °F - 72.1 °F 79% 29.86 in 10.0 mi SSE 8.1 mph - N/A   Mostly Cloudy
7:58 PM 76.8 °F - 73.2 °F 89% 29.86 in 10.0 mi SSW 4.6 mph - N/A   Overcast
8:58 PM 73.8 °F - 71.8 °F 93% 29.87 in 10.0 mi Variable 4.6 mph - N/A   Mostly Cloudy
9:58 PM 72.0 °F - 71.4 °F 98% 29.88 in 10.0 mi South 3.5 mph - N/A   Scattered Clouds
10:58 PM 70.3 °F - 70.3 °F 100% 29.87 in 10.0 mi South 2.3 mph - N/A   Clear
11:58 PM 69.6 °F - 69.6 °F 100% 29.86 in 10.0 mi SSW 4.6 mph - N/A   Clear